Tracking 25734 objects as of 28-May-2022
HD Live streaming from Space Station
objects crossing your sky now

SL-3 DEB

Track SL-3 DEB now!
10-day predictions


NORAD ID: 14928
Int'l Code: 1983-075F
Perigee: 509.2 km
Apogee: 552.6 km
Inclination: 97.8 °
Period: 95.1 minutes
Semi major axis: 6901 km
RCS: 0.0341 m2 (small)
Launch date: July 24, 1983
Source: Commonwealth of Independent States (former USSR) (CIS)
Launch site: TYURATAM MISSILE AND SPACE COMPLEX (TTMTR)

Note: This is SATELLITE DEBRIS
aabbcc
Your satellite tracking list
Your tracking list is empty




NASA's NSSDC Master Catalog

Two Line Element Set (TLE):
1 14928U 83075F   22148.20376333  .00002252  00000-0  12624-3 0  9990
2 14928  97.8369  30.4769 0031426 168.3081 310.4749 15.14089496 93423
Source of the keplerian elements: AFSPC